Location: Berlin
(42.3812°N, 71.6370°W)
Time: 11:30:30
(UTC+00:00)

Cosmos 1943 - Pass Details

Date: 24 February 2026
Orbit: 830 x 850 km, 71.0° (Epoch: 8 March)

Event Time Altitude Azimuth Distance (km) Brightness Sun altitude
Rises 23:40:24 0° 332° (NNW) 3,421 6.8 -13.7°
Reaches altitude 10° 23:42:54 10° 328° (NNW) 2,481 6.1 -14.1°
Maximum altitude 23:48:28 59° 251° (WSW) 976 3.8 -15.2°
Drops below altitude 10° 23:54:00 10° 173° (S) 2,455 5.5 -16.2°
Sets 23:56:27 0° 169° (S) 3,383 6.2 -16.6°
